Temp
5 5 5 5 5 6 6 6 6 6 6 6 6 6 7 7 7 7 7 7 8 8 8 8 8 8 8 8 9 9 9 9 9 10 10 10 10 9 9 10 11 12 13 13 13 13 13
5 5 5 5 5 5 5 6 6 6 6 6 6 6 6 7 7 7 7 7 8 7 8 8 8 8 8 9 8 9 9 9 9 9 10 10 10 9 9 10 11 12 13 12 13 13 13
4 4 4 4 4 4 4 5 5 5 5 6 6 6 6 6 7 7 7 7 8 8 8 8 8 8 8 9 8 8 9 9 9 9 9 9 9 9 9 10 11 11 12 12 12 12 13
4 4 4 4 4 4 4 4 4 4 5 5 5 5 6 6 6 6 7 7 7 8 8 8 8 8 9 8 8 9 9 9 9 9 9 9 9 8 9 9 10 10 11 11 12 12 13
3 3 3 3 3 3 4 4 4 4 4 4 4 4 5 5 6 6 6 7 7 7 7 8 8 8 8 9 8 9 9 9 9 8 8 9 8 8 9 9 10 10 11 12 12 12 13
3 3 3 3 3 3 3 3 3 3 3 3 4 4 4 5 5 5 6 6 6 7 7 7 7 8 8 8 7 8 8 9 8 8 7 7 8 8 9 9 10 11 12 12 12 13 13
2 2 2 2 2 2 2 2 2 3 3 3 3 3 4 4 4 5 5 6 6 6 7 7 6 7 7 7 7 8 7 9 8 7 7 7 7 8 9 9 10 11 12 12 13 13 13
1 1 1 2 2 2 2 2 2 2 2 2 2 3 3 3 4 4 4 5 5 5 6 6 7 7 8 7 7 8 6 7 8 7 7 6 7 8 9 10 10 11 11 12 13 13 14
0 1 1 1 1 1 1 1 2 2 2 2 2 2 2 2 3 3 3 4 4 4 5 7 7 7 8 7 8 8 7 6 6 6 7 7 8 8 8 8 9 10 11 11 12 13 13
-0 0 0 0 1 1 1 1 1 2 2 2 2 2 2 2 2 2 3 3 3 3 4 6 6 6 7 7 6 7 8 6 7 7 7 8 8 8 8 8 8 9 10 11 11 11 11
-1 -1 -1 -0 -0 0 0 0 1 1 1 2 2 2 2 2 2 2 2 2 3 3 1 6 6 6 5 7 6 8 7 6 7 7 7 8 8 9 9 9 9 9 9 9 9 10 10
-1 -1 -1 -1 -1 -1 -1 -0 -0 0 0 1 1 1 1 1 1 1 1 2 2 2 -0 6 6 6 6 6 6 6 7 7 7 7 7 8 8 9 9 9 10 10 10 9 9 9 10
-2 -2 -2 -2 -2 -2 -1 -1 -1 -1 -1 -1 -0 -0 0 1 1 1 1 1 0 -0 4 5 6 7 7 7 7 7 7 7 7 7 7 7 8 8 9 9 10 10 10 9 9 9 10
-3 -3 -3 -3 -3 -3 -2 -2 -2 -2 -1 -1 -1 -1 -1 -0 -0 0 0 -0 -1 1 3 4 4 4 5 6 6 7 7 7 7 7 7 8 8 9 9 9 9 10 10 9 9 10 11
-3 -3 -3 -3 -3 -3 -3 -3 -3 -2 -2 -2 -2 -1 -1 -1 -1 -1 -1 -3 -1 1 2 1 1 2 4 5 5 6 6 6 6 7 7 8 8 8 8 9 9 9 9 9 10 10 10
-3 -3 -3 -4 -4 -4 -4 -3 -3 -3 -3 -3 -3 -2 -2 -2 -2 -2 -3 -3 -1 -0 -0 -2 -2 -0 1 2 3 3 4 5 6 6 6 6 7 8 8 8 9 10 9 9 9 8 9
-4 -4 -4 -4 -4 -4 -4 -4 -4 -4 -4 -4 -4 -4 -5 -4 -4 -4 -5 -4 -4 -3 -4 -4 -3 -3 -3 -3 -2 -0 1 2 4 5 6 6 6 7 7 8 9 9 9 9 9 9 9
-4 -4 -5 -5 -5 -5 -5 -5 -5 -5 -5 -6 -6 -6 -7 -7 -8 -9 -7 -6 -6 -6 -6 -6 -6 -6 -5 -5 -4 -3 -1 -0 3 3 3 4 5 6 7 7 8 8 9 9 8 8 10
-5 -5 -5 -5 -6 -6 -6 -6 -6 -7 -7 -7 -7 -7 -8 -8 -9 -9 -8 -8 -7 -7 -6 -6 -6 -5 -5 -5 -5 -4 -4 -2 -2 -1 0 3 3 5 5 6 7 8 9 9 9 9 9
-6 -6 -6 -6 -6 -7 -7 -7 -7 -8 -8 -9 -9 -10 -10 -10 -10 -10 -10 -9 -8 -8 -7 -7 -7 -6 -6 -6 -6 -5 -5 -4 -4 -3 -2 -0 -0 1 4 4 5 6 8 8 9 9 9
-6 -6 -7 -7 -7 -7 -8 -8 -9 -9 -9 -10 -11 -11 -12 -10 -10 -10 -10 -9 -9 -9 -8 -8 -8 -7 -7 -7 -6 -5 -5 -4 -4 -3 -3 -3 -3 0 2 3 4 5 7 8 9 9 9
-7 -7 -7 -7 -8 -8 -9 -9 -10 -10 -11 -12 -12 -12 -12 -11 -12 -11 -10 -10 -10 -9 -9 -8 -8 -8 -8 -8 -7 -7 -7 -6 -6 -5 -4 -3 -3 -1 -1 2 3 4 5 8 9 9 9
-7 -8 -8 -8 -9 -9 -10 -11 -11 -11 -13 -13 -13 -13 -13 -11 -13 -12 -11 -11 -10 -10 -9 -9 -9 -8 -8 -8 -8 -9 -8 -8 -7 -7 -6 -6 -4 -3 -1 2 3 5 5 8 8 9 9
-8 -8 -9 -10 -10 -11 -12 -12 -12 -13 -14 -13 -13 -13 -13 -12 -13 -13 -12 -11 -11 -10 -10 -9 -9 -9 -8 -8 -9 -8 -8 -8 -8 -7 -7 -7 -6 -6 -4 0 2 5 5 7 8 8 8
-9 -10 -11 -11 -12 -13 -14 -13 -13 -14 -14 -14 -13 -14 -13 -13 -13 -13 -12 -11 -11 -11 -10 -10 -9 -9 -9 -9 -8 -8 -8 -7 -7 -7 -6 -6 -6 -5 -4 -1 2 4 6 7 7 8 9
-11 -12 -13 -14 -15 -15 -15 -15 -15 -15 -15 -14 -14 -14 -14 -14 -12 -12 -12 -12 -12 -11 -10 -10 -10 -9 -9 -9 -9 -9 -8 -7 -5 -4 -4 -5 -6 -6 -4 -2 1 3 6 7 7 8 9
-15 -15 -16 -16 -16 -16 -16 -16 -15 -16 -16 -15 -14 -14 -15 -14 -12 -13 -13 -13 -13 -12 -11 -10 -10 -9 -9 -9 -9 -8 -8 -7 -6 -5 -5 -4 -4 -5 -5 -4 -2 3 5 7 7 8 8
-16 -16 -16 -16 -16 -16 -16 -16 -16 -16 -16 -16 -14 -15 -15 -14 -13 -13 -13 -12 -12 -12 -11 -10 -10 -9 -9 -9 -9 -8 -8 -7 -6 -5 -4 -4 -4 -4 -5 -4 -3 4 6 7 7 8 8
-16 -16 -16 -16 -16 -16 -16 -16 -16 -16 -16 -16 -15 -15 -15 -14 -13 -13 -12 -11 -11 -11 -10 -10 -10 -10 -10 -10 -9 -9 -9 -8 -7 -5 -3 -3 -2 -2 -2 -1 3 3 4 5 6 7 7
Height
3161 3160 3159 3158 3157 3155 3154 3153 3152 3151 3150 3149 3148 3146 3146 3144 3143 3142 3141 3140 3140 3139 3137 3137 3136 3135 3135 3135 3136 3132 3134 3134 3136 3138 3140 3143 3146 3150 3151 3154 3156 3155 3155 3156 3156 3156 3157
3160 3158 3157 3156 3155 3154 3153 3152 3151 3150 3148 3147 3145 3144 3144 3142 3141 3139 3138 3137 3136 3136 3135 3134 3133 3133 3133 3133 3132 3130 3131 3132 3133 3135 3137 3140 3143 3148 3150 3152 3153 3153 3154 3153 3153 3154 3155
3158 3156 3155 3154 3153 3152 3151 3150 3149 3147 3146 3145 3143 3141 3140 3139 3138 3137 3135 3135 3133 3133 3132 3131 3131 3130 3130 3131 3129 3129 3130 3129 3130 3132 3134 3137 3141 3146 3149 3149 3150 3150 3149 3149 3150 3151 3152
3156 3155 3153 3152 3150 3149 3148 3147 3146 3145 3144 3142 3140 3138 3137 3136 3135 3133 3132 3131 3130 3130 3129 3128 3127 3126 3125 3126 3126 3127 3127 3127 3128 3129 3131 3133 3137 3140 3143 3145 3145 3146 3147 3145 3146 3148 3148
3154 3152 3151 3150 3148 3147 3145 3144 3143 3142 3141 3140 3138 3136 3135 3133 3132 3130 3129 3127 3127 3126 3126 3124 3124 3123 3121 3122 3122 3123 3124 3125 3126 3126 3128 3131 3136 3138 3142 3142 3142 3142 3140 3140 3142 3143 3144
3150 3149 3148 3146 3145 3144 3142 3141 3140 3139 3139 3137 3136 3133 3132 3130 3129 3127 3125 3124 3123 3122 3122 3121 3120 3121 3120 3119 3119 3120 3120 3121 3122 3124 3126 3129 3132 3134 3135 3138 3135 3138 3136 3137 3136 3138 3137
3146 3145 3144 3143 3141 3140 3139 3137 3136 3136 3135 3134 3133 3130 3129 3127 3125 3123 3123 3122 3121 3117 3118 3117 3117 3115 3116 3117 3115 3117 3116 3118 3119 3121 3122 3125 3127 3122 3129 3132 3133 3135 3133 3130 3130 3131 3132
3143 3142 3140 3139 3138 3136 3135 3133 3132 3131 3131 3131 3129 3127 3124 3123 3121 3120 3119 3117 3116 3114 3109 3112 3111 3109 3111 3112 3108 3112 3116 3115 3115 3115 3119 3122 3115 3122 3129 3131 3131 3131 3128 3126 3126 3125 3126
3139 3137 3136 3135 3134 3133 3131 3129 3127 3126 3127 3127 3126 3124 3120 3119 3118 3118 3116 3115 3113 3110 3105 3102 3103 3102 3105 3105 3103 3107 3109 3111 3111 3112 3115 3114 3114 3120 3122 3124 3124 3123 3123 3124 3124 3121 3121
3134 3133 3132 3130 3128 3127 3125 3124 3122 3121 3122 3122 3121 3119 3117 3115 3117 3113 3112 3112 3110 3108 3102 3100 3096 3097 3099 3099 3100 3101 3101 3106 3107 3107 3112 3111 3114 3116 3116 3116 3120 3117 3121 3121 3120 3119 3117
3130 3128 3126 3124 3123 3122 3121 3118 3117 3115 3116 3116 3116 3115 3112 3111 3111 3110 3110 3108 3108 3107 3105 3100 3097 3095 3097 3099 3100 3102 3100 3101 3099 3105 3111 3097 3108 3109 3111 3110 3115 3110 3117 3117 3119 3119 3118
3126 3124 3122 3120 3118 3117 3115 3114 3111 3110 3110 3110 3110 3110 3109 3109 3106 3106 3105 3105 3107 3108 3098 3096 3095 3095 3096 3096 3096 3096 3098 3099 3099 3101 3101 3094 3103 3104 3104 3107 3108 3111 3112 3112 3115 3116 3112
3121 3119 3118 3116 3113 3112 3111 3109 3107 3105 3105 3105 3105 3105 3104 3104 3104 3102 3102 3103 3107 3099 3096 3094 3094 3093 3091 3090 3091 3092 3094 3094 3095 3096 3094 3090 3095 3097 3099 3098 3101 3103 3105 3105 3107 3104 3093
3116 3114 3112 3111 3109 3107 3106 3104 3102 3100 3100 3099 3099 3099 3098 3098 3099 3099 3099 3101 3099 3091 3093 3091 3091 3085 3085 3086 3086 3087 3088 3088 3089 3090 3090 3087 3086 3089 3091 3093 3094 3095 3096 3097 3091 3093 3087
3110 3109 3107 3105 3103 3101 3100 3098 3096 3094 3094 3093 3091 3093 3092 3092 3095 3094 3095 3093 3087 3089 3091 3085 3080 3081 3081 3081 3081 3082 3082 3084 3085 3084 3084 3082 3076 3081 3080 3084 3087 3086 3087 3086 3091 3091 3086
3104 3102 3100 3098 3096 3095 3093 3092 3090 3087 3086 3084 3083 3084 3081 3085 3086 3087 3088 3082 3083 3085 3084 3080 3079 3081 3079 3079 3076 3074 3074 3076 3078 3081 3080 3075 3070 3071 3073 3074 3072 3072 3079 3084 3082 3080 3078
3098 3096 3094 3092 3090 3088 3086 3085 3082 3080 3079 3075 3074 3076 3068 3073 3076 3077 3076 3074 3075 3077 3076 3076 3076 3074 3074 3075 3073 3066 3067 3069 3071 3073 3074 3073 3069 3059 3066 3065 3063 3065 3064 3069 3073 3072 3068
3091 3089 3087 3085 3083 3081 3079 3078 3075 3073 3073 3068 3065 3066 3064 3063 3067 3065 3064 3066 3066 3067 3068 3069 3069 3069 3068 3067 3065 3060 3056 3061 3063 3066 3065 3065 3062 3055 3052 3055 3056 3055 3055 3056 3061 3062 3060
3084 3082 3080 3077 3076 3073 3071 3070 3068 3066 3064 3063 3059 3057 3059 3058 3056 3058 3058 3059 3060 3062 3061 3062 3062 3062 3062 3059 3057 3052 3048 3048 3053 3057 3056 3057 3052 3046 3042 3045 3043 3043 3042 3046 3048 3053 3054
3076 3074 3072 3069 3067 3066 3063 3061 3060 3059 3058 3057 3054 3050 3055 3051 3051 3050 3050 3048 3047 3052 3051 3053 3052 3053 3051 3048 3046 3039 3038 3038 3042 3046 3045 3047 3042 3042 3039 3033 3038 3035 3034 3036 3038 3039 3040
3067 3065 3062 3060 3059 3057 3055 3053 3051 3051 3050 3049 3047 3043 3048 3044 3045 3047 3046 3041 3039 3041 3045 3045 3042 3043 3042 3036 3033 3030 3028 3029 3031 3034 3033 3036 3028 3027 3024 3025 3028 3025 3024 3024 3024 3029 3028
3058 3055 3053 3050 3048 3046 3045 3043 3043 3042 3041 3039 3038 3038 3038 3035 3038 3036 3035 3032 3033 3031 3036 3033 3033 3031 3030 3026 3023 3021 3022 3022 3020 3020 3020 3021 3020 3014 3010 3012 3014 3012 3010 3012 3014 3018 3020
3047 3044 3042 3039 3037 3035 3034 3034 3033 3033 3033 3030 3031 3031 3029 3023 3026 3027 3024 3025 3024 3026 3023 3024 3024 3020 3017 3015 3016 3013 3010 3008 3008 3007 3006 3008 3006 3007 2997 3002 3002 2993 2995 3000 3004 3006 3009
3036 3033 3031 3028 3026 3024 3022 3022 3023 3023 3022 3023 3023 3024 3021 3013 3017 3015 3016 3019 3016 3016 3012 3011 3014 3010 3005 3008 3004 3001 2997 2994 2993 2992 2996 2995 2997 2998 2993 2989 2969 2982 2986 2991 2993 2999 3003
3024 3021 3019 3016 3015 3013 3011 3011 3011 3012 3013 3012 3014 3014 3012 3004 3007 3006 3010 3008 3006 3003 3000 3001 3003 3002 2998 2997 2993 2987 2981 2981 2974 2976 2978 2983 2986 2986 2983 2972 2973 2969 2975 2981 2983 2985 2992
3012 3009 3007 3005 3004 3003 3001 3000 3000 3000 3001 3001 3002 3004 3003 2998 2993 3001 2999 2999 2997 2994 2990 2992 2994 2994 2987 2983 2986 2976 2970 2969 2963 2963 2966 2967 2973 2979 2974 2965 2953 2960 2970 2977 2980 2971 2982
3001 2999 2997 2995 2993 2992 2990 2990 2990 2990 2991 2991 2991 2994 2993 2986 2986 2991 2989 2988 2991 2989 2984 2982 2984 2983 2982 2979 2975 2972 2959 2964 2954 2954 2954 2955 2959 2963 2966 2963 2954 2951 2962 2970 2962 2968 2975
2991 2988 2986 2984 2983 2982 2981 2980 2980 2981 2981 2981 2980 2983 2983 2978 2973 2980 2980 2977 2978 2979 2976 2975 2978 2975 2973 2970 2968 2961 2955 2944 2941 2938 2939 2943 2947 2951 2950 2959 2957 2954 2953 2952 2956 2962 2965
2980 2978 2976 2974 2973 2971 2971 2970 2971 2971 2972 2972 2970 2974 2976 2970 2963 2968 2967 2967 2970 2967 2968 2969 2968 2969 2967 2964 2962 2956 2950 2941 2936 2925 2928 2931 2931 2939 2945 2943 2944 2936 2938 2940 2945 2944 2956
Wind_Speed
13 13 12 12 11 12 13 13 14 13 13 13 13 13 13 13 13 13 13 13 13 14 15 14 14 13 13 12 9 19 15 11 14 18 23 26 25 19 22 19 19 23 23 20 12 13 13
14 14 14 14 14 14 14 14 14 15 16 15 15 15 14 15 15 14 14 14 14 14 15 15 16 15 14 14 10 16 14 15 12 16 20 26 25 20 19 20 22 21 23 22 21 15 15
15 15 15 15 16 16 15 15 16 16 17 17 19 18 18 17 16 17 17 16 15 14 15 16 16 17 17 13 15 16 13 15 16 15 18 22 23 17 19 23 20 25 24 22 20 21 17
15 15 16 16 16 17 17 17 17 17 17 18 19 21 20 19 19 18 18 18 17 16 15 15 16 18 19 18 17 15 15 16 15 17 18 19 24 24 23 21 23 22 24 25 24 21 20
16 16 17 17 17 17 18 18 18 17 17 17 18 19 20 20 20 20 20 19 19 18 16 16 16 16 18 15 14 16 16 16 17 17 18 17 15 21 21 23 26 26 30 29 28 24 26
18 18 18 18 18 19 18 18 18 18 18 17 18 20 20 20 21 20 20 20 19 19 19 18 18 16 8 11 14 15 13 16 17 17 14 17 20 25 28 26 31 28 27 30 29 27 25
20 20 20 20 19 20 20 21 20 19 19 18 18 20 21 22 22 21 20 20 20 23 17 17 15 22 16 15 21 17 13 15 17 19 21 19 23 34 31 31 30 29 34 33 31 25 29
19 20 20 21 22 22 22 22 22 22 21 20 21 21 22 21 21 22 21 19 17 20 26 20 22 25 20 17 26 17 12 17 17 21 17 20 35 28 25 26 30 31 36 36 36 35 26
20 20 21 22 22 23 24 24 24 23 22 21 22 22 23 22 22 21 20 18 17 20 26 28 21 24 20 22 26 22 18 21 18 21 23 27 28 24 26 28 30 32 33 35 36 35 29
21 21 22 22 24 24 25 26 26 26 24 23 23 24 24 24 22 22 22 18 18 19 21 20 15 7 6 12 15 10 15 23 26 27 23 29 25 26 27 32 29 33 33 34 31 32 31
22 23 23 24 25 25 26 26 27 28 27 26 26 25 27 26 24 22 20 19 18 18 6 2 5 5 3 5 8 10 9 12 31 28 20 41 28 29 31 36 25 36 33 28 24 33 38
23 24 24 25 26 26 27 27 28 28 28 28 27 27 27 26 27 24 20 16 14 6 8 5 5 4 9 13 15 17 15 12 17 28 29 39 30 30 36 33 33 32 28 29 28 30 27
24 24 25 25 26 26 26 27 28 28 27 27 27 27 26 26 24 24 23 17 7 9 6 17 20 19 18 20 18 16 16 18 21 22 30 38 33 34 33 34 33 30 35 21 20 21 22
24 24 25 26 26 26 26 27 29 29 28 27 27 27 27 27 24 23 21 13 14 13 18 24 28 26 27 24 25 25 24 26 23 23 28 32 31 32 35 37 36 31 31 24 26 16 21
25 26 26 27 27 27 27 27 29 30 29 28 30 28 28 27 24 23 20 16 17 17 18 20 24 19 22 24 22 25 28 30 31 30 30 34 41 34 39 35 39 39 38 39 33 35 24
27 27 28 29 29 29 29 29 30 30 31 32 32 31 33 29 26 21 19 26 21 15 18 19 18 15 24 23 24 24 27 28 31 32 38 42 41 41 37 38 39 46 42 33 36 21 23
29 29 30 30 31 31 31 31 32 33 32 35 35 31 33 31 26 24 22 25 19 15 16 13 17 21 24 30 28 28 30 32 34 34 32 37 42 49 40 40 43 40 46 35 38 34 18
32 32 32 32 33 33 33 33 34 34 32 34 36 31 25 31 21 19 25 24 22 18 16 22 24 27 30 30 35 32 31 32 35 35 39 37 46 41 44 44 43 46 43 47 34 37 33
35 34 34 34 34 35 34 34 33 33 33 33 34 36 30 30 26 21 22 28 26 26 26 26 29 30 32 35 38 34 36 40 37 40 33 37 35 42 43 44 48 48 50 41 48 44 40
36 37 36 36 36 35 35 35 34 32 31 31 31 27 14 17 25 25 25 29 32 25 27 26 29 30 33 36 36 43 40 41 41 39 43 43 48 47 33 39 46 43 50 51 44 35 41
38 38 38 38 38 37 36 35 35 32 30 30 28 30 19 23 21 23 25 30 31 31 26 26 30 32 34 39 40 41 40 40 41 43 49 48 49 49 53 54 52 65 54 52 46 49 42
40 40 40 41 40 38 37 34 33 32 29 28 32 31 28 33 27 29 32 37 36 36 31 34 35 34 34 38 39 40 37 39 41 42 37 40 52 41 49 55 51 59 62 58 51 46 46
42 43 43 43 42 41 38 33 32 30 24 26 25 24 29 38 32 32 37 34 35 34 37 37 36 37 36 37 35 38 41 42 46 41 45 36 29 28 40 52 55 57 65 52 56 43 49
44 45 45 42 41 39 37 34 31 28 28 28 29 29 33 41 34 36 32 31 35 37 42 36 35 40 37 35 36 42 46 46 44 45 48 52 42 37 25 39 40 52 61 47 45 51 47
46 45 44 42 39 37 35 34 32 31 30 33 32 34 34 41 36 38 35 36 37 39 38 33 33 37 34 36 42 43 38 36 40 42 47 45 40 26 22 35 37 51 49 49 49 49 50
45 43 40 38 37 34 33 34 29 30 30 31 34 36 37 40 47 38 34 38 41 41 39 34 31 27 29 24 29 27 34 40 32 31 41 44 43 43 26 12 28 49 46 47 45 52 45
34 34 35 35 37 36 32 30 30 30 26 30 33 34 35 43 44 33 36 41 36 38 42 39 31 28 30 32 33 29 44 35 43 40 37 35 42 43 41 22 21 39 48 47 55 42 45
34 37 39 40 38 36 34 32 32 31 27 29 32 35 34 41 46 41 42 46 45 43 44 38 33 27 26 24 28 26 27 45 37 43 44 41 37 36 31 22 23 28 39 54 51 42 41
39 40 40 38 36 34 34 33 31 32 30 28 33 32 30 38 47 44 41 37 43 39 35 32 37 35 35 29 29 32 42 50 37 38 41 47 43 40 25 32 28 18 15 29 16 31 30
Wind_Direction
331 331 331 329 325 321 321 323 326 327 328 327 325 325 328 328 324 315 305 293 290 294 297 299 301 300 293 282 253 261 268 270 249 233 227 223 222 224 234 241 245 244 251 257 278 262 271
324 322 322 321 321 320 318 315 314 316 317 319 318 316 317 318 320 319 320 316 304 290 288 292 293 293 292 294 276 277 262 255 256 241 228 225 224 231 242 246 246 250 256 256 256 269 267
312 314 316 317 316 316 316 315 315 313 312 311 309 308 309 311 310 311 312 313 314 308 295 285 285 286 284 287 278 275 268 264 246 246 238 227 221 229 241 249 249 257 264 256 251 255 258
305 306 306 305 305 307 309 311 313 312 311 310 309 307 308 305 306 305 304 307 307 308 307 300 287 282 282 287 278 274 272 264 254 247 246 228 219 221 228 241 251 255 254 257 250 250 249
302 302 303 303 303 304 305 305 305 307 309 310 308 306 305 306 304 304 303 302 301 300 299 300 294 290 294 292 286 270 264 259 252 246 239 225 224 232 240 246 251 249 247 246 253 248 248
301 302 304 304 305 304 303 302 302 303 305 308 309 308 309 306 303 303 302 301 299 296 294 291 285 288 281 281 257 289 283 260 249 249 227 220 220 229 232 232 239 239 241 246 253 248 241
301 301 301 302 302 303 304 304 304 303 305 306 305 305 305 307 306 303 300 299 302 301 293 284 271 277 270 283 272 271 289 264 253 243 237 217 221 222 226 233 239 245 252 253 250 246 250
294 294 295 297 300 301 300 299 299 301 305 308 310 311 309 307 307 307 307 306 306 301 291 280 280 275 276 269 267 274 230 264 253 237 240 221 233 228 236 245 245 247 253 256 262 260 247
295 293 294 295 296 297 297 296 295 295 298 303 305 307 311 313 314 315 313 311 309 307 301 295 288 278 272 261 269 269 246 243 236 237 227 231 238 240 229 241 243 248 255 259 263 269 280
293 294 294 294 294 295 295 296 295 295 298 301 303 306 305 311 312 315 316 319 319 317 311 302 278 283 274 261 275 298 273 228 242 240 239 244 247 239 239 240 243 255 246 254 278 281 283
296 296 296 295 296 296 298 297 296 297 299 299 301 305 306 307 311 309 312 314 315 320 322 333 214 230 215 266 284 71 332 258 235 241 242 247 242 239 242 241 240 251 248 266 269 255 270
299 298 297 298 298 298 298 298 298 298 300 301 301 301 302 304 306 307 311 316 317 296 247 258 255 284 281 284 287 281 274 271 250 246 247 255 252 248 246 248 246 253 250 252 256 257 262
301 299 299 299 299 299 298 298 297 297 299 299 299 299 299 299 302 302 304 309 298 222 281 267 273 277 278 274 271 265 265 258 252 246 249 257 254 251 251 257 248 242 246 244 244 235 247
301 300 300 300 300 300 299 298 296 295 296 296 295 295 295 293 293 291 292 292 239 260 263 285 288 279 268 265 266 267 268 271 263 254 257 267 270 249 248 247 250 244 246 227 241 243 250
300 300 300 299 300 300 299 296 295 294 295 293 292 291 289 287 286 283 279 249 251 272 286 303 290 284 269 265 265 268 265 260 262 264 271 266 265 267 263 253 240 244 242 242 250 253 270
299 299 299 299 298 298 297 296 295 294 296 295 294 295 290 291 292 285 273 259 258 267 281 289 285 284 283 275 275 275 271 267 266 260 266 275 284 269 265 266 263 234 238 244 247 243 246
297 298 298 298 297 298 298 298 297 298 301 300 300 304 294 297 293 284 264 267 275 267 274 284 275 274 278 284 279 274 271 273 261 273 269 269 277 278 273 263 260 265 225 225 246 236 241
296 297 296 296 296 297 297 297 297 298 299 298 299 301 283 294 295 276 273 281 276 272 268 280 278 279 277 280 279 273 262 257 249 260 276 267 276 274 274 268 261 258 260 221 228 246 239
296 297 296 296 295 294 295 295 294 294 295 293 290 289 288 290 276 270 276 276 274 276 275 276 273 269 273 271 272 266 268 261 264 268 268 259 277 280 278 276 260 257 252 246 226 235 250
295 296 296 295 294 294 294 293 291 290 289 287 286 286 282 264 273 272 277 276 277 274 275 275 273 275 274 271 269 273 272 269 268 260 260 259 268 271 265 264 266 274 249 249 230 227 238
296 296 296 295 294 294 292 290 289 286 283 279 272 272 269 267 263 271 274 274 279 276 275 274 274 271 275 278 276 271 271 271 265 263 261 258 269 267 265 262 263 261 257 246 240 226 235
296 296 295 294 293 292 291 287 283 282 278 270 268 266 272 272 267 266 264 264 271 278 278 276 273 276 279 275 268 277 279 269 267 265 264 263 266 266 263 258 258 255 259 241 243 223 234
295 295 295 295 294 292 289 284 279 275 268 265 268 271 266 268 267 265 265 271 274 278 275 274 276 279 273 274 274 271 272 269 264 261 256 254 257 263 260 246 247 245 249 243 237 237 233
295 295 294 292 290 288 286 283 276 267 255 257 257 262 265 266 267 267 269 274 275 272 277 271 276 275 283 286 288 277 272 265 262 264 258 254 260 265 270 245 241 238 240 241 242 236 235
295 293 292 292 290 287 284 282 276 267 255 250 253 252 261 268 271 275 269 273 268 292 289 277 277 273 279 271 268 268 274 277 265 254 250 247 244 253 246 246 241 236 235 235 246 245 234
293 292 291 290 288 285 280 280 276 272 264 253 251 252 256 267 265 278 276 272 276 279 286 277 277 274 267 279 279 283 277 275 272 261 264 242 237 244 254 276 238 234 228 226 241 245 238
285 280 283 284 285 287 280 274 266 268 269 255 251 250 257 265 265 272 275 274 271 273 281 278 277 273 276 280 274 264 278 276 269 264 265 229 216 221 239 254 264 236 230 225 235 236 235
280 279 282 285 286 284 278 275 269 266 267 262 251 248 256 264 267 272 281 272 269 276 274 272 283 284 279 265 274 272 281 287 265 253 253 251 210 223 243 243 252 217 224 230 237 239 232
280 283 286 288 288 283 280 277 277 266 264 265 255 248 258 263 270 280 278 264 263 273 266 263 268 272 272 274 281 287 285 298 279 265 241 245 217 221 214 221 236 254 241 209 219 218 222